Regional Weather Roundup
Issued by NWS

Home | Current Version | Previous Version | Text Only | Print | Product List | Glossary Off
Versions: 1 2 3 4 5 6 7 8 9 10 11 12 13 14 15 16 17 18 19 20 21 22 23 24 25 26 27 28 29 30 31 32 33 34 35 36 37 38 39 40 41 42 43 44 45 46 47 48 49 50

000
ASUS43 KMPX 050510
RWRMN
WEATHER ROUNDUP FOR MINNESOTA
NATIONAL WEATHER SERVICE TWIN CITIES/CHANHASSEN MN
1100 PM CST WED MAR 04 2015


NOTE: "FAIR" INDICATES FEW OR NO CLOUDS BELOW 12,000 FEET WITH NO
SIGNIFICANT WEATHER AND/OR OBSTRUCTIONS TO VISIBILITY. N/A MEANS
CURRENT SKY AND/OR WEATHER CONDITIONS ARE NOT AVAILABLE.

MNZ060>063-068>070-050600-
   Twin Cities Metro

CITY           SKY/WX    TMP DP  RH WIND       PRES   REMARKS
TWIN CITIES    CLEAR      0 -12  57 W6        30.44S WCI -12
ST PAUL        CLEAR      0 -11  59 W7        30.46S WCI -13
CRYSTAL        CLEAR     -2 -13  59 W8        30.43R WCI -17
BLAINE         CLEAR      0 -11  60 W5        30.42S WCI -10
LAKEVILLE      CLEAR     -6 -13  71 W8        30.42F WCI -21
EDEN PRAIRIE   CLEAR     -5 -13  68 W5        30.43S WCI -16
SOUTH ST PAUL  CLEAR      1 -12  54 W6        30.44F WCI -11
LAKE ELMO      FAIR       0 -11  60 W6        30.42F WCI -12
$$
MNZ001>005-007-008-013>017-022>024-027-028-050600-
   Northwest Minnesota

CITY           SKY/WX    TMP DP  RH WIND       PRES   REMARKS
BEMIDJI        CLEAR    -12 -16  79 W6        30.32R WCI -25
HALLOCK        CLEAR    -11 -18  70 W3        30.37S
ROSEAU         CLEAR     -9 -17  70 SW6       30.33S WCI -23
WARROAD        CLEAR    -11 -17  77 SW5       30.32S WCI -23
THIEF RVR FALL CLEAR     -9 -27  41 CALM      30.35S
CROOKSTON      CLEAR     -8 -15  71 W5        30.41S WCI -19
FOSSTON        PTCLDY   -18 -24  76 S5        30.36R HAZE    WCI -31
DETROIT LAKES  CLEAR     -4  -9  77 W5        30.36S WCI -15
MOORHEAD       CLEAR     -4  -9  77 W5        30.43S WCI -15
PARK RAPIDS    CLEAR    -16 -21  78 W5        30.32R WCI -29
MAHNOMEN       FAIR      -9 -13  81 W5        30.37R WCI -20
$$
MNZ006-009>011-018-025>026-050600-
   North Central Minnesota

CITY           SKY/WX    TMP DP  RH WIND       PRES   REMARKS
BAUDETTE       CLEAR    -11 -17  75 W6        30.30R WCI -25
FLAG ISLAND    CLEAR     -9 -15  77 W8        30.30R WCI -26
INTL FALLS     CLEAR    -10 -17  71 W6        30.29R WCI -23
WASKISH        CLEAR    -11 -17  77 SW6       30.32S WCI -25
BIG FORK       CLEAR    -11 -18  70 CALM      30.30S
LONGVILLE      CLEAR    -18 -24  76 CALM      30.33S
GRAND RAPIDS   CLEAR     -8 -15  71 W6        30.29R WCI -21
CRANE LAKE     CLEAR    -22 -27  76 CALM      30.31S
ORR            CLEAR    -13 -20  70 CALM      30.26R
COOK           CLEAR    -15 -18  84 W5        30.28S WCI -27
WALKER         FAIR     -12 -18  77 W5        30.33R WCI -24
$$
MNZ012-019>021-037-050600-
   Northeast Minnesota

CITY           SKY/WX    TMP DP  RH WIND       PRES   REMARKS
DULUTH         FAIR      -7 -17  62 W8        30.28R WCI -23
ELY            CLEAR     -9 -17  70 W5        30.25S WCI -21
HIBBING        CLEAR    -11 -18  71 SW5       30.29R WCI -23
EVELETH        FAIR     -15 -20  76 W5        30.29R WCI -27
DULUTH HARBOR  CLEAR     -2 -15  55 W9        30.40R WCI -18
TWO HARBORS    CLEAR     -2 -11  65 W5        30.28R WCI -12
SILVER BAY     CLEAR     -2 -15  55 CALM      30.27R
GRAND MARAIS     N/A      1  -8  66 SW8       30.30R WCI -13
G MARAIS ARPRT PTCLDY    -9 -18  64 NW7       30.17R WCI -24
$$
MNZ029>031-032-039>041-046>048-054>057-064-050600-
   West Central Minnesota

CITY           SKY/WX    TMP DP  RH WIND       PRES   REMARKS
FERGUS FALLS   CLEAR     -6 -13  71 NW6       30.45R WCI -18
WHEATON        CLEAR     -9 -15  77 W3        30.46R
MORRIS         CLEAR     -9 -15  77 W7        30.42R WCI -24
ALEXANDRIA     PTCLDY   -10 -14  82 SW6       30.38R WCI -23
ELBOW LAKE     FAIR      -8 -12  81 W6        30.40R WCI -21
WADENA         CLEAR     -9 -13  84 W5        30.36R WCI -21
GLENWOOD       PTCLDY    -9 -15  77 W6        30.39S WCI -23
APPLETON       CLEAR     -9 -17  70 W6        30.46R WCI -23
BENSON         CLEAR     -9 -17  70 W6        30.43R WCI -23
ORTONVILLE     CLEAR     -6 -15  65 W6        30.44R WCI -18
MADISON        CLEAR     -4 -11  71 W8        30.46S WCI -19
WILLMAR        FAIR      -4 -11  71 W6        30.44R WCI -16
$$
MNZ033>034-036-042>043-049>051-058-059-050600-
   Central Minnesota

CITY           SKY/WX    TMP DP  RH WIND       PRES   REMARKS
ST CLOUD       PTCLDY    -6 -15  65 W5        30.42R WCI -17
SAUK CENTRE    FAIR     -10 -14  82 CALM      30.40R
PAYNESVILLE    CLEAR    -12 -16  85 S6        30.42R WCI -26
AITKIN         CLEAR    -15 -20  76 CALM      30.34R
PINE RIVER     CLEAR    -15 -18  84 CALM      30.37S
BRAINERD       CLEAR     -7 -15  68 W5        30.37R WCI -18
STAPLES        FAIR     -17 -20  83 W3        30.36S
LONG PRAIRIE   FAIR      -9 -15  77 SW5       30.38R WCI -21
LITTLE FALLS   PTCLDY    -9 -17  70 CALM      30.41R
LITCHFIELD     CLEAR     -2  -9  71 CALM      30.44R
BUFFALO        CLEAR     -7 -15  68 CALM      30.45R
MAPLE LAKE     CLEAR     -3 -11  71 SW5       30.44R WCI -14
$$
MNZ037-044-045-052-053-050600-
   East Central Minnesota

CITY           SKY/WX    TMP DP  RH WIND       PRES   REMARKS
PRINCETON      FAIR      -6 -15  65 CALM      30.41R
MORA           CLEAR    -13 -20  70 CALM      30.41R
CAMBRIDGE      CLEAR     -4 -15  59 CALM      30.41R
RUSH CITY      MOCLDY    -9 -17  69 CALM      30.42R
MOOSE LAKE     CLEAR     -8 -17  65 CALM      30.35R
HINCKLEY       FAIR      -9 -17  70 W3        30.39R
CLOQUET        CLEAR     -8 -17  65 W5        30.31R WCI -19
MCGREGOR       CLEAR     -6 -13  71 W5        30.34S WCI -17
$$
MNZ071>073-080-081-089-090-097-098-050600-
   Southwest Minnesota

CITY           SKY/WX    TMP DP  RH WIND       PRES   REMARKS
MONTEVIDEO     CLEAR     -6 -11  77 NW3       30.47R
GRANITE FALLS  CLEAR     -5 -11  75 W9        30.48S WCI -22
CANBY          CLEAR     -5 -12  73 W6        30.47R WCI -18
MARSHALL       CLEAR     -6 -15  65 W8        30.46R WCI -21
REDWOOD FALLS  FAIR      -4  -9  79 W7        30.47R WCI -18
OLIVIA         CLEAR     -6 -11  77 SW6       30.46R WCI -18
PIPESTONE      PTCLDY    -8 -13  77 NW5       30.40S WCI -19
WINDOM         CLEAR     -6 -11  77 W3        30.42F
WORTHINGTON    CLEAR     -6 -13  71 NW8       30.42F WCI -21
JACKSON        CLEAR     -4 -11  71 NW7       30.41F WCI -18
TRACY          CLEAR     -5 -12  71 W6        30.45S WCI -17
SLAYTON        CLEAR     -8 -16  69 CALM      30.42S
$$
MNZ065>067-074>077-082>085-091>093-050600-
   South Central Minnesota

CITY           SKY/WX    TMP DP  RH WIND       PRES   REMARKS
MANKATO        CLEAR     -2  -9  71 NW8       30.42F WCI -17
NEW ULM        CLEAR     -6 -13  71 W6        30.46S WCI -18
ST JAMES       CLEAR     -2  -9  71 W8        30.45F WCI -17
FAIRMONT       CLEAR      0  -9  65 NW10      30.40F WCI -17
GLENCOE        CLEAR     -5 -11  77 MISG      30.44F
FARIBAULT      CLEAR     -4 -11  71 W7        30.41F WCI -18
OWATONNA       CLEAR     -2  -9  71 W9        30.39F WCI -18
WASECA         CLEAR     -2  -9  71 W8        30.43F WCI -17
ALBERT LEA     CLEAR      0  -8  71 NW7       30.38F WCI -13
$$
MNZ078>079-086>088-094>096-050600-
   Southeast Minnesota

CITY           SKY/WX    TMP DP  RH WIND       PRES   REMARKS
ROCHESTER      CLEAR     -4 -12  68 NW12      30.36S WCI -22
RED WING       CLEAR      1 -15  46 NW5       30.42F WCI  -8
STANTON        CLEAR     -3 -12  67 W8        30.41F WCI -18
DODGE CENTER   PTCLDY     0  -9  65 NW10      30.36F WCI -17
WINONA         CLEAR      5  -6  61 NW7       30.43S WCI  -7
AUSTIN         CLEAR     -2  -9  71 NW8       30.38F WCI -17
PRESTON        CLEAR     -4 -12  69 NW9       30.36F WCI -20
$$
ABBREVIATIONS USED IN REMARKS
   TC - TEMPERATURES IN CELSIUS
  WCI - WIND CHILL INDEX
   HX - HEAT INDEX
  VSB - VISIBILITY
$$


USA.gov is the U.S. government's official web portal to all federal, state and local government web resources and services.